Temp
-14 -13 -13 -13 -13 -13 -13 -13 -14 -14 -14 -15 -15 -15 -15 -15 -15 -16 -16 -16 -16 -16 -17 -17 -17 -17 -17 -18 -18 -18 -18 -18 -18 -17 -17 -17 -17 -18 -19 -20 -22 -23 -24
-14 -14 -14 -13 -13 -13 -13 -14 -14 -15 -15 -15 -15 -15 -15 -15 -16 -16 -16 -17 -17 -17 -17 -17 -17 -17 -18 -18 -18 -18 -18 -18 -18 -18 -17 -18 -19 -21 -23 -23 -25 -25 -26
-14 -14 -14 -13 -13 -14 -14 -15 -15 -15 -16 -16 -16 -16 -16 -16 -16 -16 -16 -17 -17 -17 -17 -17 -18 -18 -18 -18 -18 -18 -18 -18 -19 -19 -19 -20 -23 -24 -24 -26 -26 -27 -28
-14 -14 -14 -14 -14 -15 -15 -15 -16 -16 -16 -16 -16 -16 -16 -16 -16 -16 -17 -17 -17 -17 -18 -18 -18 -18 -18 -18 -18 -18 -18 -19 -20 -21 -23 -24 -24 -25 -26 -26 -27 -28 -28
-14 -14 -14 -14 -15 -15 -16 -16 -16 -16 -16 -16 -16 -16 -16 -16 -16 -17 -17 -17 -18 -18 -18 -18 -18 -18 -18 -18 -18 -19 -19 -21 -22 -23 -24 -25 -26 -26 -26 -26 -27 -27 -28
-14 -14 -15 -16 -15 -16 -16 -16 -16 -16 -16 -16 -17 -16 -16 -17 -17 -17 -17 -18 -18 -18 -19 -19 -18 -19 -18 -19 -19 -20 -22 -24 -24 -25 -26 -26 -26 -26 -26 -26 -26 -27 -27
-15 -15 -15 -16 -16 -16 -16 -16 -16 -16 -16 -17 -16 -17 -17 -17 -17 -18 -18 -18 -19 -19 -19 -18 -18 -19 -19 -19 -20 -22 -24 -25 -26 -26 -26 -26 -26 -26 -26 -27 -27 -27 -26
-15 -16 -16 -16 -16 -16 -16 -16 -17 -17 -17 -17 -17 -17 -17 -18 -18 -18 -19 -19 -19 -19 -19 -19 -19 -19 -20 -21 -22 -24 -25 -26 -26 -26 -26 -26 -26 -26 -26 -26 -26 -27 -27
-16 -16 -16 -16 -16 -16 -17 -17 -17 -17 -17 -17 -17 -17 -18 -18 -19 -19 -19 -19 -19 -19 -19 -19 -20 -20 -21 -22 -24 -25 -26 -27 -27 -27 -26 -26 -26 -26 -26 -26 -26 -26 -26
-16 -16 -16 -16 -16 -17 -17 -17 -17 -17 -17 -17 -18 -18 -18 -19 -19 -19 -19 -19 -19 -19 -19 -20 -20 -21 -24 -25 -25 -26 -26 -27 -27 -27 -27 -27 -27 -27 -26 -26 -26 -26 -25
-16 -16 -17 -17 -17 -17 -17 -17 -17 -17 -18 -18 -18 -19 -19 -19 -19 -19 -19 -19 -19 -19 -20 -21 -22 -25 -25 -26 -27 -27 -27 -26 -26 -26 -26 -27 -27 -26 -26 -26 -26 -26 -25
-16 -17 -17 -17 -17 -17 -17 -17 -18 -18 -18 -18 -19 -19 -19 -19 -19 -19 -19 -19 -20 -20 -21 -23 -25 -26 -26 -27 -27 -27 -27 -26 -27 -26 -26 -26 -26 -26 -27 -26 -26 -26 -25
-16 -17 -17 -17 -17 -17 -18 -18 -18 -18 -19 -19 -19 -19 -19 -19 -19 -19 -19 -20 -21 -22 -24 -25 -26 -26 -27 -27 -27 -27 -27 -27 -27 -27 -26 -27 -26 -26 -26 -26 -26 -26 -26
-16 -17 -17 -17 -18 -18 -18 -18 -18 -19 -19 -19 -19 -19 -19 -19 -19 -19 -20 -21 -22 -23 -25 -26 -27 -27 -27 -27 -27 -27 -27 -27 -27 -26 -26 -26 -26 -26 -26 -26 -26 -26 -26
-17 -17 -18 -18 -18 -18 -18 -19 -19 -19 -19 -19 -19 -19 -19 -19 -19 -20 -21 -22 -24 -25 -26 -27 -27 -27 -27 -27 -27 -27 -27 -27 -27 -27 -27 -27 -27 -27 -26 -26 -26 -27 -26
-18 -18 -18 -18 -18 -19 -19 -19 -19 -19 -19 -19 -19 -19 -19 -20 -21 -22 -22 -25 -26 -26 -27 -28 -28 -27 -27 -27 -27 -27 -27 -28 -28 -28 -28 -28 -28 -27 -27 -27 -27 -27 -26
-18 -18 -18 -18 -19 -19 -19 -19 -20 -19 -19 -19 -19 -20 -20 -22 -22 -23 -25 -26 -26 -27 -27 -27 -27 -27 -27 -27 -27 -28 -28 -28 -28 -28 -28 -29 -29 -28 -28 -28 -28 -27 -27
-18 -18 -19 -19 -19 -19 -19 -19 -19 -19 -19 -20 -20 -21 -22 -23 -23 -25 -26 -27 -28 -28 -27 -27 -27 -27 -27 -27 -28 -28 -29 -29 -29 -29 -29 -29 -29 -28 -28 -28 -28 -28 -27
-19 -19 -19 -19 -19 -19 -19 -19 -19 -19 -19 -20 -20 -22 -23 -24 -26 -26 -27 -28 -28 -28 -28 -28 -27 -27 -27 -28 -29 -29 -29 -29 -29 -29 -29 -29 -29 -30 -29 -29 -29 -28 -28
-19 -19 -19 -19 -19 -19 -19 -19 -19 -19 -20 -21 -21 -22 -23 -26 -26 -27 -28 -28 -28 -28 -27 -27 -28 -28 -28 -28 -29 -29 -29 -29 -30 -29 -29 -29 -29 -29 -29 -29 -29 -29 -28
-19 -19 -19 -19 -19 -19 -19 -19 -20 -20 -21 -22 -23 -24 -25 -26 -27 -27 -27 -27 -27 -27 -27 -28 -28 -28 -28 -28 -29 -29 -29 -29 -29 -29 -29 -29 -29 -29 -29 -29 -29 -29 -29
-19 -19 -19 -19 -19 -19 -19 -20 -20 -21 -21 -22 -24 -26 -26 -27 -27 -27 -27 -27 -27 -27 -27 -27 -28 -28 -28 -29 -29 -29 -29 -29 -29 -29 -29 -29 -29 -29 -29 -29 -29 -29 -29
-19 -19 -19 -19 -19 -20 -20 -20 -21 -22 -22 -24 -25 -26 -27 -27 -27 -27 -27 -27 -27 -27 -27 -27 -27 -28 -28 -29 -29 -29 -29 -29 -29 -29 -29 -29 -29 -29 -29 -29 -29 -29 -29
-19 -19 -20 -20 -20 -20 -20 -21 -22 -22 -24 -25 -26 -26 -27 -27 -27 -27 -27 -26 -26 -26 -26 -26 -26 -27 -27 -28 -28 -28 -29 -29 -29 -29 -30 -30 -30 -30 -30 -30 -30 -30 -29
-20 -20 -20 -20 -20 -21 -21 -22 -22 -24 -25 -26 -27 -27 -27 -27 -26 -27 -26 -26 -26 -26 -26 -26 -26 -26 -27 -27 -27 -28 -28 -28 -28 -29 -30 -30 -30 -30 -30 -31 -31 -30 -29
-20 -20 -20 -20 -21 -21 -22 -22 -24 -25 -26 -27 -27 -27 -27 -26 -27 -26 -26 -26 -26 -26 -26 -26 -26 -27 -27 -27 -27 -27 -28 -28 -28 -29 -29 -30 -30 -30 -30 -31 -31 -30 -30
Height
5690 5691 5691 5691 5690 5690 5690 5688 5686 5683 5680 5677 5673 5668 5663 5659 5653 5647 5641 5634 5627 5618 5609 5600 5590 5580 5571 5561 5550 5539 5526 5511 5500 5510 5485 5472 5449 5424 5405 5386 5366 5348 5336
5682 5683 5684 5683 5683 5682 5681 5679 5677 5674 5671 5667 5662 5658 5653 5647 5640 5635 5628 5619 5611 5603 5594 5584 5574 5564 5554 5543 5531 5519 5504 5486 5467 5458 5456 5432 5410 5390 5374 5356 5341 5323 5308
5675 5675 5676 5676 5675 5675 5673 5671 5668 5665 5662 5657 5652 5647 5641 5635 5628 5621 5613 5605 5596 5586 5577 5567 5557 5547 5536 5523 5510 5495 5478 5460 5438 5416 5409 5394 5378 5358 5347 5333 5317 5304 5291
5668 5668 5669 5668 5668 5667 5664 5661 5659 5656 5652 5647 5642 5636 5629 5622 5615 5607 5599 5590 5580 5569 5560 5551 5540 5528 5516 5502 5487 5469 5449 5430 5410 5390 5374 5362 5348 5336 5325 5316 5308 5293 5282
5662 5662 5662 5661 5660 5658 5656 5653 5650 5646 5641 5636 5630 5623 5616 5608 5601 5592 5584 5574 5564 5555 5545 5533 5521 5508 5494 5478 5460 5442 5421 5401 5383 5370 5356 5343 5331 5322 5313 5305 5296 5288 5275
5655 5655 5655 5653 5652 5650 5648 5645 5641 5636 5630 5624 5619 5611 5604 5595 5587 5578 5568 5560 5550 5539 5529 5517 5503 5488 5473 5456 5436 5415 5393 5372 5361 5351 5342 5331 5322 5313 5305 5297 5288 5280 5275
5649 5648 5647 5646 5644 5642 5639 5635 5631 5625 5620 5613 5606 5599 5591 5583 5573 5563 5554 5545 5535 5523 5511 5498 5483 5466 5448 5432 5414 5393 5377 5359 5344 5337 5331 5323 5314 5306 5299 5291 5282 5274 5266
5642 5641 5640 5638 5636 5633 5630 5626 5621 5615 5608 5601 5594 5586 5578 5568 5559 5550 5541 5531 5519 5506 5491 5475 5460 5443 5423 5405 5390 5378 5363 5347 5338 5329 5321 5315 5307 5300 5291 5284 5277 5272 5263
5635 5634 5633 5631 5628 5625 5620 5616 5610 5604 5597 5590 5582 5573 5565 5556 5547 5537 5527 5516 5502 5488 5472 5452 5435 5419 5401 5383 5369 5359 5348 5337 5329 5321 5313 5306 5300 5293 5285 5280 5274 5268 5263
5629 5628 5626 5623 5620 5615 5611 5606 5600 5593 5586 5578 5568 5561 5552 5543 5532 5523 5511 5498 5485 5470 5452 5432 5412 5394 5376 5364 5353 5344 5337 5329 5323 5315 5308 5302 5294 5288 5281 5274 5268 5263 5257
5622 5620 5618 5614 5610 5606 5601 5595 5589 5582 5573 5566 5558 5548 5538 5529 5518 5506 5493 5478 5463 5449 5430 5411 5391 5374 5361 5350 5340 5333 5327 5322 5315 5309 5303 5298 5291 5285 5278 5270 5263 5256 5252
5615 5612 5609 5605 5600 5595 5590 5584 5578 5571 5563 5554 5545 5535 5525 5514 5502 5489 5475 5458 5441 5425 5408 5387 5372 5360 5348 5339 5332 5326 5321 5313 5308 5303 5298 5292 5287 5281 5274 5266 5260 5254 5246
5607 5604 5600 5595 5591 5586 5580 5573 5567 5559 5550 5542 5533 5524 5513 5499 5486 5472 5457 5440 5423 5404 5385 5369 5357 5346 5338 5331 5325 5320 5313 5308 5303 5297 5291 5285 5280 5275 5270 5264 5257 5251 5243
5598 5595 5591 5587 5582 5576 5569 5562 5555 5547 5538 5530 5520 5510 5498 5484 5470 5455 5439 5422 5404 5385 5371 5358 5345 5336 5329 5325 5319 5313 5307 5301 5296 5292 5286 5279 5274 5268 5264 5259 5255 5250 5244
5590 5587 5582 5577 5572 5565 5558 5551 5543 5535 5527 5517 5506 5494 5481 5467 5451 5435 5416 5398 5382 5369 5357 5346 5337 5330 5325 5318 5311 5305 5300 5294 5289 5283 5278 5273 5268 5262 5257 5253 5249 5245 5242
5582 5577 5573 5567 5561 5554 5547 5539 5531 5523 5512 5501 5489 5475 5461 5445 5430 5413 5395 5378 5366 5355 5346 5338 5331 5326 5320 5314 5307 5300 5294 5289 5283 5277 5272 5268 5264 5259 5253 5248 5244 5242 5239
5573 5568 5563 5557 5551 5544 5538 5530 5521 5507 5496 5485 5472 5457 5441 5426 5410 5394 5378 5365 5353 5346 5338 5332 5326 5320 5314 5308 5303 5297 5290 5283 5278 5272 5267 5262 5258 5253 5249 5245 5241 5238 5236
5564 5559 5553 5547 5541 5534 5526 5517 5508 5497 5487 5473 5456 5441 5425 5407 5391 5377 5366 5354 5344 5336 5332 5328 5321 5315 5310 5305 5298 5292 5285 5280 5274 5268 5262 5257 5253 5249 5245 5241 5238 5235 5233
5555 5549 5544 5537 5531 5523 5514 5504 5494 5483 5470 5457 5443 5425 5408 5391 5375 5364 5354 5345 5339 5333 5329 5324 5318 5313 5307 5301 5296 5290 5285 5278 5272 5265 5260 5255 5250 5246 5241 5238 5235 5232 5230
5545 5540 5533 5527 5519 5510 5501 5491 5480 5468 5454 5439 5424 5410 5395 5381 5369 5357 5348 5341 5336 5331 5326 5321 5315 5310 5305 5300 5295 5290 5283 5276 5269 5264 5260 5255 5250 5245 5241 5237 5233 5229 5227
5536 5530 5524 5516 5507 5498 5489 5478 5466 5452 5438 5423 5407 5392 5380 5371 5360 5351 5345 5340 5335 5330 5324 5319 5314 5309 5305 5301 5296 5290 5284 5278 5272 5266 5261 5255 5250 5245 5240 5235 5231 5227 5225
5527 5520 5513 5504 5496 5486 5475 5464 5450 5436 5421 5407 5392 5379 5368 5360 5353 5347 5343 5339 5334 5329 5323 5318 5313 5309 5305 5301 5296 5291 5285 5279 5272 5267 5261 5256 5250 5244 5239 5234 5229 5225 5223
5517 5510 5502 5493 5484 5472 5460 5448 5434 5420 5404 5390 5379 5369 5360 5353 5349 5346 5342 5338 5334 5329 5324 5319 5314 5310 5306 5302 5297 5292 5286 5279 5273 5267 5262 5256 5250 5244 5238 5233 5228 5224 5222
5507 5499 5491 5480 5470 5459 5446 5432 5417 5402 5387 5376 5366 5359 5353 5349 5347 5345 5342 5339 5335 5331 5326 5322 5317 5312 5307 5303 5298 5292 5286 5280 5274 5268 5263 5258 5252 5245 5239 5232 5226 5223 5221
5497 5488 5478 5467 5456 5444 5431 5416 5400 5385 5372 5362 5356 5351 5347 5346 5346 5345 5343 5340 5337 5333 5329 5325 5320 5315 5311 5305 5300 5295 5289 5282 5276 5271 5265 5260 5253 5247 5241 5233 5228 5225 5223
5484 5475 5465 5454 5442 5429 5415 5399 5383 5369 5359 5351 5347 5344 5343 5345 5346 5346 5344 5342 5340 5336 5332 5328 5324 5320 5315 5310 5305 5300 5294 5288 5282 5277 5270 5264 5257 5251 5245 5238 5234 5230 5228
Wind_Speed
33 34 34 34 35 36 37 37 38 40 41 41 42 44 47 50 53 56 58 63 65 66 71 76 77 75 75 78 80 83 89 96 102 98 107 110 118 124 123 115 107 103 100
35 35 36 36 35 36 36 36 38 40 40 42 44 47 51 55 57 60 64 62 66 71 75 78 74 76 78 79 84 91 99 105 111 113 112 117 116 104 95 94 87 84 82
37 37 37 36 35 35 35 37 39 40 41 44 48 51 55 58 60 59 60 66 72 76 76 73 76 77 80 85 91 99 106 111 115 120 116 105 93 89 78 65 62 56 51
36 36 35 32 32 33 35 37 38 40 44 48 52 55 57 55 57 62 67 72 76 73 73 75 76 81 87 93 98 107 113 115 116 108 97 88 78 58 50 47 41 40 37
33 30 30 30 31 34 34 36 39 44 48 52 54 52 55 58 63 67 72 75 70 72 73 76 82 87 94 99 106 112 115 109 97 89 81 66 52 43 41 41 36 32 34
28 27 27 30 31 32 34 38 43 46 50 50 53 56 59 63 67 71 72 69 71 72 76 82 89 94 100 105 111 112 103 91 82 72 60 49 35 40 33 34 34 32 27
23 25 27 27 29 33 37 41 45 49 51 55 57 59 62 66 71 68 69 70 71 77 83 89 94 101 105 111 109 98 83 75 66 58 43 40 37 31 35 28 26 27 28
21 22 25 29 33 37 41 44 47 51 54 56 59 61 66 69 66 67 69 72 77 83 89 95 100 105 111 107 95 80 69 57 49 42 45 37 28 33 32 30 24 21 26
22 25 29 32 36 40 43 46 50 52 55 57 60 65 64 64 66 68 71 77 83 87 94 101 105 111 105 92 78 67 52 44 37 42 37 32 33 34 33 28 23 20 23
25 28 31 36 39 41 46 49 51 53 55 60 62 61 62 63 67 71 77 82 88 93 98 104 109 103 86 74 65 51 39 31 37 33 32 34 35 34 33 33 31 28 28
28 32 34 37 41 44 47 49 50 55 58 58 59 59 62 66 70 76 82 88 93 97 103 106 97 79 71 63 50 39 29 35 32 30 32 31 32 32 32 32 33 34 31
30 33 36 39 42 44 46 50 53 54 55 55 56 60 65 71 76 81 86 91 96 101 104 89 75 66 60 47 39 31 36 34 28 30 30 30 29 30 31 32 31 32 34
32 35 37 40 42 45 49 50 51 52 52 55 59 62 69 75 80 85 90 95 100 101 82 71 65 56 45 36 32 35 31 27 27 28 29 32 32 31 28 27 29 29 32
34 37 38 40 44 45 47 49 49 51 54 57 62 68 73 79 84 89 93 98 100 81 69 62 52 44 33 31 32 30 31 30 29 29 30 32 31 30 27 24 23 23 24
34 36 39 41 43 45 46 47 50 53 56 61 67 72 78 83 88 93 100 100 81 69 61 50 40 30 33 32 33 34 32 33 31 31 30 31 31 30 27 23 21 22 20
36 38 39 42 44 44 46 49 52 56 62 67 73 79 83 88 92 99 96 77 69 62 49 37 29 32 30 31 30 31 31 32 34 34 33 31 30 28 26 25 21 17 17
36 39 41 41 42 45 47 50 55 62 67 73 77 82 87 91 97 93 75 68 62 49 36 29 32 30 30 29 30 32 32 33 32 32 31 29 27 25 24 21 20 18 15
38 39 39 41 43 45 49 54 59 65 69 75 80 85 89 95 89 75 68 60 46 35 29 31 30 29 29 30 29 28 28 29 30 29 27 25 22 22 22 20 18 17 13
38 38 40 42 44 49 54 59 65 69 74 79 83 89 94 82 71 66 59 42 30 28 29 28 26 27 28 27 25 27 28 29 27 26 24 23 22 20 19 17 16 14 11
37 39 41 44 49 54 59 64 68 72 77 83 89 93 84 66 61 54 40 29 26 27 25 26 26 25 25 24 23 26 29 31 27 24 23 24 23 21 18 17 17 16 11
38 40 44 49 54 59 63 67 71 76 82 88 92 82 65 60 51 37 25 23 23 24 25 24 24 23 23 20 24 25 27 27 26 24 23 24 23 22 21 19 17 17 14
40 44 49 53 58 62 66 70 75 81 88 91 79 65 59 49 36 23 20 19 22 23 24 24 21 19 17 18 20 24 26 27 26 23 24 25 25 25 23 21 19 17 12
44 49 53 57 61 65 69 74 81 88 89 77 64 56 45 35 22 15 15 18 19 20 19 19 19 17 15 16 18 23 28 27 24 23 24 24 25 26 24 22 20 14 10
48 52 56 60 64 68 72 79 88 88 77 64 54 43 34 21 10 9 12 15 16 17 19 21 21 22 21 20 21 24 25 24 23 24 23 24 25 25 26 27 19 13 8
52 56 60 64 66 72 78 87 88 77 65 52 42 32 22 6 3 6 11 15 17 20 20 22 21 22 24 25 25 27 29 29 28 26 25 25 26 26 28 28 20 13 10
56 60 64 66 71 78 86 86 77 64 53 44 33 20 7 4 4 8 12 15 18 22 23 23 23 23 26 28 27 27 29 30 31 31 30 28 28 28 30 29 22 17 15
Wind_Direction
247 252 256 263 267 272 278 283 285 286 289 290 293 296 298 299 299 298 298 299 303 304 306 307 308 307 306 306 306 306 306 306 305 304 303 301 301 301 300 298 297 295 293
250 254 259 265 272 277 282 286 286 288 289 292 296 298 298 299 299 300 302 304 305 306 307 308 307 307 307 307 307 308 309 309 308 307 307 305 304 302 300 299 299 295 293
251 255 261 267 274 280 283 284 286 289 293 296 297 298 298 301 303 303 305 306 306 307 308 307 308 308 308 309 310 312 311 311 310 309 308 307 307 304 304 301 303 301 299
251 256 264 271 276 281 282 286 290 293 295 297 299 301 303 303 305 307 307 307 308 309 308 309 309 309 311 311 311 312 313 312 310 309 311 311 311 308 307 307 311 311 309
256 262 265 274 279 280 285 290 293 295 298 300 303 303 304 306 307 307 307 308 308 309 309 309 310 311 311 312 314 315 314 311 310 312 313 316 315 314 313 313 314 314 310
257 266 274 277 280 285 291 294 297 300 301 302 303 306 307 306 306 307 308 308 309 309 309 311 312 312 313 315 316 316 312 313 313 313 317 318 320 317 321 321 319 318 313
267 271 275 279 287 292 295 297 299 300 301 303 305 306 306 306 308 308 309 309 309 310 312 312 313 314 315 315 316 314 314 312 313 317 320 322 322 322 325 328 327 326 322
269 277 284 288 292 296 297 298 300 301 303 304 305 305 307 307 308 308 309 309 310 312 312 313 316 316 316 317 313 314 314 312 314 316 318 322 322 325 328 332 334 330 325
280 284 288 293 295 295 298 300 301 301 303 304 305 306 307 308 308 309 309 311 311 313 315 317 317 318 317 313 315 317 315 312 314 317 320 324 325 329 332 336 335 332 334
284 289 292 292 295 297 299 299 300 302 303 304 306 307 308 309 310 311 312 311 314 316 317 318 318 317 314 315 317 318 315 312 316 317 319 322 326 328 330 334 339 338 344
289 290 290 293 296 297 297 300 301 302 304 305 307 308 309 310 312 312 314 316 317 317 317 318 317 315 316 317 317 319 313 318 319 320 321 322 322 326 331 333 336 338 343
286 290 293 294 295 298 299 300 301 303 306 307 308 309 311 312 314 316 317 317 317 318 319 317 316 317 317 317 317 318 318 321 321 321 320 320 325 327 328 330 335 336 340
290 293 295 297 298 300 301 302 305 306 307 308 309 310 312 315 316 317 318 317 319 321 318 317 319 319 317 317 317 320 322 319 319 320 320 320 319 321 322 325 330 336 338
295 296 297 298 300 301 304 306 306 307 309 310 312 315 316 316 317 317 318 320 322 320 319 319 320 319 319 319 322 324 323 321 319 318 318 318 320 318 319 318 322 335 337
296 297 299 301 303 305 306 306 308 310 312 314 316 318 318 318 318 319 321 323 322 320 321 323 321 321 322 323 323 323 323 323 322 323 324 323 325 323 320 319 319 328 337
299 301 304 305 306 306 308 310 313 315 317 319 320 320 319 319 321 323 325 323 322 322 324 325 323 323 323 324 325 325 325 323 322 322 319 318 320 324 323 321 320 318 330
304 305 306 306 307 309 312 315 317 319 320 320 320 319 319 321 323 325 324 323 321 322 326 325 325 326 329 330 328 325 324 326 326 323 319 315 317 322 327 325 323 321 323
306 307 306 307 310 315 317 318 320 320 320 319 319 320 322 324 325 324 324 323 322 326 327 328 329 331 333 332 334 337 339 339 339 339 337 334 326 323 324 327 325 322 320
307 306 308 313 316 318 320 320 321 321 321 320 321 322 325 326 324 325 326 326 327 328 329 331 334 336 338 345 349 350 349 345 341 342 344 348 348 344 337 334 327 321 321
308 311 315 317 319 320 320 321 321 321 321 322 323 324 326 324 325 326 327 329 328 331 335 336 338 342 349 356 0 359 357 359 359 357 357 353 353 351 344 340 337 332 326
313 316 318 318 319 321 321 321 321 322 323 324 323 325 324 325 326 327 328 330 335 337 337 342 345 349 355 1 2 5 5 3 3 3 0 353 347 343 340 338 338 339 338
316 318 319 320 321 321 322 322 323 323 324 323 325 324 325 327 327 329 333 340 339 343 346 348 351 354 358 357 358 0 2 2 0 0 0 359 0 359 354 349 344 340 333
319 321 321 321 321 322 322 323 324 324 323 323 324 323 326 326 326 334 342 345 353 2 10 14 14 8 358 353 351 351 352 354 356 2 3 2 1 2 0 355 350 342 339
322 322 323 322 322 323 324 325 324 323 323 323 322 325 326 324 328 349 358 12 20 26 30 30 28 22 16 7 359 357 1 3 5 7 8 0 1 4 5 3 2 5 12
323 324 323 323 324 324 325 325 324 324 322 323 324 324 321 308 5 22 35 36 42 41 39 36 33 32 28 27 26 24 23 23 21 14 11 10 11 13 15 15 21 30 44
325 324 324 324 325 326 325 326 326 324 324 323 322 317 302 159 115 78 67 61 57 50 46 41 41 44 42 39 37 36 34 33 31 28 24 22 23 25 26 27 31 47 57